Home > Time Zones > World Clock > Weather > Mali > Bamako > Past weeks

Flag for Mali Weather past 2 weeks in Bamako, Mali

Now
81 °F

Passing clouds.


Feels Like: 87 °F
Forecast: 77 / 97 °F
Wind: 7 mph from Southwest

Location: Bamako / Senou

Current Time: Jul 2, 2015 at 8:23:57 AM

Latest Report: Jul 2, 2015 at 7:30 AM


Visibility: N/A

Pressure: 29.98 "Hg

Humidity: 89%

Dew point: 77 °F

Location of BamakoLocation

Historic Weather in Bamako — Graph

°F

Bamako temperature yesterday

Maximum temperature yesterday: 95 °F (at 4:00 PM)
Minimum temperature yesterday: 73 °F (at 3:30 AM)
Average temperature yesterday: 84 °F

Past Weeks' High & Low Weather Summary

 TemperatureHumidityPressure
High102 °F (Jun 18, 3:30 PM)100% (Jun 20, 3:00 AM)30.15 "Hg (Jun 20, 3:00 AM)
Low68 °F (Jun 29, 9:00 AM)24% (Jun 18, 3:30 PM)29.80 "Hg (Jun 18, 4:30 PM)
Average82 °F73%29.98 "Hg
* Reported Jun 17 7:30 AM — Jul 2 7:00 AM, Bamako, Weather by CustomWeather, © 2015

Note: Actual official high and low records may vary slightly from our data, if they occured in-between our weather recording intervals... More about our weather records

Advertising

Bamako weather history for previous 24 hours

 ConditionsComfort  
Time TempWeatherWind HumidityBarometerVisibility
7:00 AM
Thu, Jul 2
79 °FPassing clouds.6 mph94%29.98 "HgN/A
6:30 AM79 °FPassing clouds.2 mph94%29.98 "HgN/A
6:00 AM79 °FPassing clouds.6 mph94%29.98 "HgN/A
5:30 AM79 °FPassing clouds.6 mph94%29.98 "HgN/A
5:00 AM79 °FPassing clouds.5 mph94%29.98 "HgN/A
4:30 AM79 °FClear.2 mph94%29.98 "Hg10 mi
4:00 AM77 °FClear.5 mph100%29.95 "Hg10 mi
3:30 AM79 °FClear.2 mph89%29.95 "Hg10 mi
3:00 AM77 °FClear.2 mph94%29.95 "Hg10 mi
2:30 AM79 °FPassing clouds.No wind94%29.95 "HgN/A
2:00 AM81 °FPassing clouds.2 mph84%29.98 "HgN/A
1:30 AM82 °FPassing clouds.7 mph74%29.98 "HgN/A
1:00 AM82 °FPassing clouds.5 mph79%29.98 "HgN/A
12:30 AM82 °FPassing clouds.3 mph84%29.98 "HgN/A
12:00 AM81 °FPassing clouds.No wind89%30.01 "HgN/A
11:30 PM
Wed, Jul 1
81 °FPassing clouds.3 mph89%30.01 "HgN/A
11:00 PM81 °FPassing clouds.1 mph89%30.01 "HgN/A
10:30 PM82 °FPassing clouds.2 mph89%30.01 "HgN/A
9:30 PM84 °FPassing clouds.No wind79%30.01 "HgN/A
9:00 PM84 °FPassing clouds.No wind70%29.98 "HgN/A
8:30 PM88 °FPassing clouds.2 mph59%29.98 "HgN/A
8:00 PM86 °FPassing clouds.No wind75%29.98 "HgN/A
7:30 PM88 °FPassing clouds.No wind66%29.95 "HgN/A
7:00 PM91 °FPassing clouds.3 mph46%29.95 "HgN/A
6:31 PM93 °FPassing clouds.2 mph41%29.92 "HgN/A
6:00 PM93 °FPassing clouds.3 mph41%29.92 "HgN/A
5:30 PM95 °FPassing clouds.3 mph39%29.92 "HgN/A
5:00 PM95 °FPassing clouds.3 mph39%29.92 "HgN/A
4:30 PM93 °FPassing clouds.3 mph41%29.92 "HgN/A
4:00 PM95 °FPassing clouds.3 mph39%29.92 "HgN/A
3:30 PM93 °FPassing clouds.3 mph41%29.95 "HgN/A
3:00 PM93 °FPassing clouds.2 mph44%29.95 "HgN/A
2:30 PM93 °FPassing clouds.3 mph44%29.98 "HgN/A
2:00 PM91 °FPassing clouds.7 mph46%29.98 "HgN/A
1:30 PM91 °FPassing clouds.8 mph46%29.98 "HgN/A
1:00 PM90 °FPassing clouds.5 mph52%30.01 "HgN/A
12:30 PM90 °FPassing clouds.7 mph55%30.01 "HgN/A
12:00 PM90 °FPassing clouds.7 mph52%30.01 "HgN/A
11:30 AM88 °FPassing clouds.7 mph59%30.04 "HgN/A
11:00 AM86 °FPassing clouds.6 mph62%30.04 "HgN/A
10:30 AM84 °FPassing clouds.6 mph70%30.04 "HgN/A
9:30 AM82 °FPassing clouds.7 mph74%30.01 "HgN/A
9:00 AM82 °FPassing clouds.8 mph74%30.01 "HgN/A
8:30 AM79 °FSunny.8 mph89%30.01 "Hg10 mi
8:00 AM77 °FSunny.6 mph100%30.01 "Hg10 mi
Weather by CustomWeather, © 2015

See weather overviewHow to use our weather pages